星链-5834 (STARLINK-5834 )

导读

STARLINK-5834是美国SpaceX公司星链星座的成员,于2023年6月22日发射入轨,属于星链第二代星座的低轨通信卫星。星链项目旨在构建覆盖全球的低轨卫星互联网,为偏远地区等网络薄弱区域提供高速宽带服务。STARLINK-5834具备激光星间链路能力,可实现卫星间直接通信,助力星链构建高效全球网络,是星链大规模组网的重要一环,目前该卫星已加入星链在轨运行网络,服务全球卫星互联网接入。

基本信息
目录编号:
57071
目录名称:
STARLINK-5834
国际标识:
2023-088Z
轨道中心:
EARTH
卫星名称:
星链-5834
卫星全名:
星链-5834 (STARLINK-5834 )
卫星状态:
在轨 (已飞行1089 天)
发射日期:
2023-06-22 UTC
国别 :
美国 (US)
星等 :
--
轨道信息
数据来源 国际轨道数据 AOE轨道数据
星历时间 2026-06-13T22:07:51+0800
1天前
查看轨道信息
2026-06-12T08:00:00+0800
3天前
查看轨道信息
半长轴 6861.196km 6861.204km
偏心率 0.0001329 0.0001422
轨道倾角 43.005° 43.002°
近地点辐角 267.589° 272.714°
升交点赤经 274.823° 283.798°
平近点角 92.481° 339.920°
近地点 482.147km 482.091km
远地点 483.971km 484.043km
周期 94.267分钟 94.267分钟
每日圈数 15.27577 15.275741
详细信息
固有亮度:
5
最大亮度:
2.4
卫星平台:
Starlink v1.5
覆盖范围:
全球
运营商:
太空探索技术公司
运营商所在国:
美国
制造商(研发单位):
太空探索技术公司
制造商所在国:
美国
使用方式:
暂无
卫星简介
星链(Starlink)计划是由太空探索技术公司(SpaceX)提出的一个巨型低轨卫星互联网星座项目,计划在2019年至2024年间在太空搭建由约1.2万颗卫星组成的“星链”网络,其中1584颗将部署在地球上空550千米处的近地轨道,并从2020年开始工作。该卫星仍在工作。
2D轨道图
3D轨道图
轨道高度分析图
轨道倾角分析图
轨道综合分析图
查看轨道综合分析图